Regional Weather Roundup
Issued by NWS Newport/Morehead, NC

Current Version | Previous Version | Graphics & Text | Print | Product List | Glossary Off
Versions: 1 2 3 4 5 6 7 8 9 10 11 12 13 14 15 16 17 18 19 20 21 22 23 24 25 26 27 28 29 30 31 32 33 34 35 36 37 38 39 40 41 42 43 44 45 46 47 48 49 50

000
ASUS42 KMHX 242325
RWRMHX
WEATHER ROUNDUP FOR EASTERN NORTH CAROLINA
NATIONAL WEATHER SERVICE NEWPORT/MOREHEAD CITY NC
600 PM EST SAT FEB 24 2018

NOTE: "FAIR" INDICATES FEW OR NO CLOUDS BELOW 12,000 FEET
WITH NO SIGNIFICANT WEATHER AND/OR OBSTRUCTIONS TO VISIBILITY

NCZ015>017-031-032-045>047-102-103-250000-
NORTH COAST

CITY           SKY/WX    TMP DP  RH WIND       PRES   REMARKS
EDENTON        FAIR      71  60  68 S5        30.10S
ELIZABETH CITY FAIR      71  61  70 S6        30.09S
KITTY HAWK     FAIR      67  59  74 CALM      30.10R
MANTEO         FAIR      65  61  85 S10       30.11S

$$

NCZ045>047-081-094-103-104-250000-
CENTRAL COAST

CITY           SKY/WX    TMP DP  RH WIND       PRES   REMARKS
FRISCO         FAIR      66  64  93 SW8       30.14F

$$

NCZ095-097-098-100-101-250000-
SOUTHERN COAST

CITY           SKY/WX    TMP DP  RH WIND       PRES   REMARKS
BEAUFORT       FAIR      66  62  87 SW10      30.14S
CEDAR ISLAND   NOT AVBL
JACKSONVILLE   FAIR      71  63  75 S8        30.11S
PINEY ISLAND   NOT AVBL
WILMINGTON     FAIR      71  63  75 SW14      30.13F


$$

NCZ011>013-027>030-043-044-078>080-089-090>093-098-250000-
COASTAL PLAIN

CITY           SKY/WX    TMP DP  RH WIND       PRES   REMARKS
AHOSKIE        FAIR      70  59  69 S3        30.08F
CLINTON        FAIR      75  59  58 CALM      30.10S
ELIZABETHTOWN  NOT AVBL
GOLDSBORO      FAIR      75  60  58 S3        30.07F
GREENVILLE     FAIR      72  59  64 CALM      30.11R
HAVELOCK       NOT AVBL
KENANSVILLE    FAIR      73  57  56 CALM      30.10F
KINSTON        FAIR      73  57  56 S5        30.10F
NEW BERN       FAIR      71  62  73 S9        30.12S
RICHLANDS      FAIR      74  62  66 S9        30.11S
ROCKY MOUNT    FAIR      72  59  63 S5        30.08F
WASHINGTON     FAIR      73  58  59 CALM      30.09F
WHITEVILLE     FAIR      73  63  69 SE6       30.11S

$$

AMZ130-135-150-152-154-156-158-170-250-252-270-ANZ085-086-088-633-658-670-250000-
MARINE OBSERVATIONS

STATION/POSITION TIME  TEMP    WIND        PRES    WAVE   SWELL
                       AIR SEA DIR/SP/G            HT/PER HT/PER
                 (UTC) (F)     (DEG/KT/KT) (MB)    (FT/S) (FT/S)
CHESAPEAKE LIGHT NOT AVBL
64 E VA BEACH    2250   54 51  200/ 10/ 12 1019.7    3/ 8   3/ 8
DUCK             2300   69 47  210/  5/  6 1018.7
2 E DUCK         2300      49                N/A     2/10   2/11
OREGON INLET     2300   62 60  190/ 12/ 14 1019.8
13E OREGON INLT  2248      49                N/A     4/ 9   3/ 9
HATTERAS CG      2300   66 61  220/  8/ 14 1020.4
DIAMOND BUOY     2310   72 74  230/ 17/ 21 1021.0
CAPE LOOKOUT     2300          210/ 11/ 13 1021.1
BEAUFORT LAB     2300   65 60  210/ 11/ 13 1020.8
30 SE NEW RVR IN 2208   71 70  220/ 12/ 16 1021.2
30 SE NEW RVR IN 2300      69                N/A     4/10   2/11
27 SE WRIGHTSVLE 2208   69 69  210/ 12/ 17 1021.3
5 SE WRIGHTSVLE  2308   62 59  220/  6/ 10 1020.5
225 S CAPE HAT   2250   72 73  210/  8/ 10 1023.8    6/10   5/10
41 SE CHARLESTON 2310   70 71  220/  6/  8 1021.4

$$



USA.gov is the U.S. government's official web portal to all federal, state and local government web resources and services.